SCP
0 0 0 0 0 0 0 0 0 0 0 0 0 0 -0 0 0 0 0 0 0 0 0 0 0 0 0 0 0 0 0 0 0 0 0 0 0 0 0 0 0 0 0 0
0 0 0 0 0 0 0 0 0 0 0 0 0 0 0 0 0 0 0 0 0 0 0 0 0 0 0 0 0 0 0 0 0 0 0 0 0 0 0 0 0 0 0 0
0 0 0 0 0 0 0 0 0 0 0 0 0 0 0 0 0 0 0 0 0 0 0 0 0 0 0 0 0 0 0 0 0 0 0 0 0 0 0 0 0 0 0 0
0 0 0 0 0 0 0 0 0 0 0 0 0 0 0 0 0 0 0 0 0 0 0 0 0 0 0 0 0 0 0 0 0 0 0 0 0 0 0 0 0 0 0 0
0 0 0 0 0 0 0 0 0 0 0 0 0 0 0 0 0 0 0 0 0 0 0 0 0 0 0 0 0 0 0 0 0 0 0 0 0 0 0 0 0 0 0 0
0 0 0 0 0 0 0 0 0 0 0 0 0 0 0 0 0 0 0 0 0 0 0 0 0 0 0 0 0 0 0 0 0 0 0 0 0 0 0 0 0 0 0 0
0 0 0 0 0 0 0 0 0 0 0 0 0 0 0 0 0 0 0 0 0 0 0 0 0 0 0 0 0 0 0 0 0 0 0 0 0 0 0 0 0 0 0 0
0 0 0 0 0 0 0 0 0 0 0 0 0 0 0 0 0 0 0 0 0 0 0 0 0 0 0 0 0 0 0 0 0 0 0 0 0 0 0 0 0 0 0 0
0 0 0 0 0 0 0 0 0 0 0 0 0 0 0 0 0 0 0 0 0 0 0 0 0 0 0 0 0 0 0 0 0 0 0 0 0 0 0 0 0 0 0 0
0 0 0 0 0 0 0 0 0 0 0 0 0 0 0 0 0 0 0 0 0 0 0 0 0 0 0 0 0 0 0 0 0 0 0 0 0 0 0 0 0 0 0 0
0 0 0 0 0 0 0 0 0 0 0 0 0 0 0 0 0 0 0 0 0 0 0 0 0 0 0 0 0 0 0 0 0 0 0 0 0 0 0 0 0 0 0 0
0 0 0 0 0 0 0 0 0 0 0 0 0 0 0 0 0 0 0 0 0 0 0 0 0 0 0 0 0 0 0 0 0 0 0 0 0 0 0 0 0 0 0 0
0 0 0 0 0 0 0 0 0 0 0 0 0 0 0 0 0 0 0 0 0 0 0 0 0 0 0 0 0 0 0 0 0 0 0 0 0 0 0 0 0 0 0 0
0 0 0 0 0 0 0 0 0 0 0 0 0 0 0 0 0 0 0 0 0 0 0 0 0 0 0 0 0 0 0 0 0 0 0 0 0 0 0 0 0 0 0 0
0 0 0 0 0 0 0 0 0 0 0 0 0 0 0 0 0 0 0 0 0 0 0 0 0 0 0 0 0 0 0 0 0 0 0 0 0 0 0 0 0 0 0 0
0 0 0 0 0 0 0 0 0 0 0 0 0 0 0 0 0 0 0 0 0 0 0 0 0 0 0 0 0 0 0 0 0 0 0 0 0 0 0 0 0 0 0 0
0 0 0 0 0 0 0 0 0 0 0 0 0 0 0 0 0 0 0 0 0 0 0 0 0 0 0 0 0 0 0 0 0 0 0 0 0 0 0 0 0 0 0 0
0 0 0 0 0 0 0 0 0 0 0 0 0 0 0 0 0 0 0 0 0 0 0 0 0 0 0 0 0 0 0 0 0 0 0 0 0 0 0 0 0 0 0 0
0 0 0 0 0 0 0 0 0 0 0 0 0 0 0 0 0 0 0 0 0 0 0 0 0 0 0 0 0 0 0 0 0 0 0 0 0 0 0 0 0 0 0 0
0 0 0 0 0 0 0 0 0 0 0 0 0 0 0 0 0 0 0 0 0 0 0 0 0 0 0 0 0 0 0 0 0 0 0 0 0 0 0 0 0 0 0 0
0 0 0 0 0 0 0 0 0 0 0 0 0 0 0 0 0 0 0 0 0 0 0 0 0 0 0 0 0 0 0 0 0 0 0 0 0 0 0 0 0 0 0 0
0 0 0 0 0 0 0 0 0 0 0 0 0 0 0 0 0 0 0 0 0 0 0 0 0 0 0 0 0 0 0 0 0 0 0 0 0 0 0 0 0 0 0 0
0 0 0 0 0 0 0 0 0 0 0 0 0 0 0 0 0 0 0 0 0 0 0 0 0 0 0 0 0 0 0 0 0 0 0 0 0 0 0 0 0 0 0 0
0 0 0 0 0 0 0 0 0 0 0 0 0 0 0 0 0 0 0 0 0 0 0 0 0 0 0 0 0 0 0 0 0 0 0 0 0 0 0 0 0 0 0 0
0 0 0 0 0 0 0 0 0 0 0 0 0 0 0 0 0 0 0 0 0 0 0 0 0 0 0 0 0 0 0 0 0 0 0 0 0 0 0 0 0 0 0 0
0 0 0 0 0 0 0 0 0 0 0 0 0 0 0 0 0 0 0 0 0 0 0 0 0 0 0 0 0 0 0 0 0 0 0 0 0 0 0 0 0 0 0 0
0 0 0 0 0 0 0 0 0 0 0 0 0 0 0 0 0 0 0 0 0 0 0 0 0 0 0 0 0 0 0 0 0 0 0 0 0 0 0 0 0 0 0 0
Wind_Speed
9 8 8 11 14 17 20 20 18 18 18 14 9 7 5 3 4 5 6 7 8 8 9 9 9 9 9 10 11 11 12 12 12 11 11 11 11 10 10 10 9 9 9 9
9 8 9 13 16 19 22 23 23 20 19 13 9 6 6 6 5 6 7 7 7 8 9 9 9 9 9 10 10 11 12 11 11 11 11 11 10 10 10 9 9 9 9 9
6 7 7 12 16 19 20 23 24 23 19 10 11 11 10 9 8 9 8 7 8 9 9 9 9 10 10 10 10 11 11 11 11 11 11 11 10 10 10 10 9 9 8 8
5 5 11 7 7 13 17 19 19 18 13 12 14 14 13 11 10 10 9 8 8 8 8 8 8 9 9 10 11 11 11 11 11 11 11 11 11 10 10 9 8 8 8 8
5 7 9 8 7 10 14 13 12 14 14 13 12 12 14 12 11 11 10 9 9 9 8 8 9 10 10 10 10 11 11 11 12 12 12 12 11 11 9 8 8 7 7 7
6 8 9 5 3 5 9 11 7 9 11 11 10 13 13 9 10 11 9 7 7 7 8 8 9 10 11 11 11 12 12 12 11 12 12 12 11 10 8 8 7 7 6 6
10 9 9 5 4 3 9 5 4 7 8 9 11 13 11 9 9 9 9 7 6 7 8 9 10 12 12 11 12 11 11 11 11 11 11 11 10 9 9 8 8 7 6 5
8 10 9 1 0 4 4 6 6 6 7 9 12 12 11 10 9 7 7 6 6 7 8 8 11 12 12 12 10 10 11 11 11 11 9 9 10 9 9 9 8 7 7 5
7 8 5 4 7 7 7 8 8 8 9 10 10 11 10 10 9 7 7 6 6 7 8 8 10 12 13 11 12 12 12 12 11 11 10 10 10 10 9 8 7 6 6 5
10 12 11 11 11 10 9 10 11 11 11 11 11 11 11 10 9 7 6 6 6 7 9 9 10 10 10 12 13 13 13 12 11 11 10 9 7 7 7 7 7 6 6 5
14 14 13 11 10 11 12 13 13 13 12 11 11 11 11 10 9 7 5 5 6 8 9 10 10 10 10 12 14 14 13 12 11 10 10 9 7 5 6 5 6 7 6 6
13 12 12 14 13 14 14 14 14 14 14 13 11 11 10 9 8 6 5 5 6 7 8 9 10 11 11 12 14 15 13 12 9 9 8 8 8 7 7 6 7 6 6 6
16 16 16 18 19 17 15 15 14 14 14 14 12 10 9 8 6 5 5 6 7 8 9 10 11 11 11 12 13 13 13 12 9 9 9 9 8 8 8 7 8 8 8 7
16 16 18 18 17 16 15 15 13 13 13 12 10 9 7 6 6 6 6 7 7 7 9 10 11 11 11 12 12 12 12 11 10 9 9 8 8 7 7 8 7 5 5 7
16 15 17 17 17 16 14 12 12 12 11 10 8 7 6 6 6 6 5 6 7 8 9 10 11 11 11 11 12 12 11 9 9 8 8 7 7 7 7 7 6 6 5 5
14 14 15 16 17 16 14 13 12 12 10 9 7 6 5 5 4 4 6 8 9 9 9 10 10 10 11 11 12 10 9 12 10 9 8 8 7 7 7 6 6 6 5 5
14 15 15 15 16 15 14 12 12 11 9 8 7 4 3 4 5 5 6 6 7 7 8 9 10 10 10 11 11 9 9 10 12 9 8 7 7 7 6 6 6 5 4 5
16 17 17 17 15 15 14 12 10 9 8 6 5 4 5 6 7 7 7 7 8 7 7 8 9 10 10 10 9 8 9 8 8 8 7 7 7 6 6 6 6 6 5 5
15 16 16 16 15 14 12 11 9 8 6 5 6 6 6 6 6 8 8 9 10 9 7 8 12 11 10 10 10 8 9 9 8 7 7 9 7 6 6 5 5 5 5 4
13 13 14 14 12 11 11 9 8 6 5 6 6 6 6 6 7 9 9 6 4 5 9 10 10 9 10 10 10 8 9 9 9 8 7 6 6 6 5 5 5 5 4 4
12 11 10 9 8 8 7 7 6 6 5 6 7 7 7 7 8 8 8 7 6 8 10 11 8 8 8 9 10 8 8 8 8 7 7 6 6 6 5 5 4 4 3 3
10 8 7 6 5 4 3 3 4 5 5 5 6 7 8 9 8 7 6 6 8 10 8 7 7 9 11 11 7 8 8 7 7 6 6 6 6 5 5 4 4 3 3 3
8 7 5 3 2 1 2 2 4 5 5 6 7 8 8 8 7 7 7 6 7 10 8 7 10 15 14 8 7 8 8 7 6 6 5 5 5 5 4 4 3 3 3 3
7 4 2 1 3 4 4 4 5 5 6 6 6 6 7 7 6 5 6 11 12 11 8 11 15 15 12 7 7 7 6 6 6 5 5 5 4 4 3 3 3 3 2 3
5 3 3 3 4 4 5 6 8 8 8 7 8 7 6 5 6 7 8 10 13 12 9 12 15 13 8 7 7 6 6 5 5 5 5 4 4 3 3 3 3 2 2 2
5 4 4 4 4 4 4 5 6 6 6 7 7 7 7 7 9 9 8 10 12 12 9 7 8 9 7 7 7 6 5 5 5 4 4 4 4 3 2 2 2 2 2 2
5 4 4 5 5 5 5 5 6 6 6 7 8 7 7 7 8 9 10 9 8 8 7 7 6 6 6 6 6 5 5 4 4 3 3 3 2 2 2 2 2 2 2 2
Wind_Direction
269 269 233 235 230 224 221 222 227 230 236 235 233 236 230 210 183 186 185 187 188 185 181 179 177 177 178 177 176 175 178 181 185 183 182 183 184 184 182 182 183 182 184 187
268 260 248 244 232 226 228 228 233 238 240 237 241 241 233 224 203 205 203 199 196 192 186 185 184 179 176 176 174 175 177 179 177 176 176 177 177 176 174 175 176 177 183 184
266 260 260 244 223 219 224 228 229 234 237 237 235 230 229 228 225 221 218 210 203 200 196 191 189 181 178 175 169 173 175 174 173 173 173 173 169 169 172 175 174 177 180 182
266 246 233 242 223 225 230 234 234 241 247 239 239 243 242 238 239 241 234 221 215 208 202 195 187 180 172 166 169 171 171 172 171 170 170 167 168 171 172 172 173 175 177 179
243 244 254 261 244 224 225 235 240 242 245 247 253 260 249 240 244 244 240 233 222 211 202 189 181 173 165 166 169 170 174 173 171 169 167 167 169 170 168 166 167 167 169 173
238 242 241 248 272 257 225 238 247 248 251 254 240 241 246 248 243 249 250 239 222 206 195 188 178 167 167 170 173 179 177 172 168 167 167 167 167 164 160 159 158 155 159 167
237 245 259 290 307 219 202 235 285 256 256 252 241 248 272 270 250 245 246 238 218 200 195 189 174 168 173 174 181 176 165 161 161 163 163 161 157 156 154 150 149 151 150 154
221 232 243 358 214 215 281 312 307 287 268 262 261 268 275 272 264 250 241 232 213 199 193 182 176 173 175 179 170 158 156 156 156 157 152 152 151 151 152 152 151 151 150 147
233 249 293 277 261 279 298 300 303 305 296 284 278 275 276 276 267 254 241 228 211 197 186 182 181 179 176 168 157 155 153 153 151 149 150 153 152 152 152 156 155 156 157 156
259 258 270 278 277 282 290 297 300 300 299 294 284 282 277 274 267 257 244 225 206 190 185 184 180 180 170 157 156 154 153 151 150 148 147 148 147 152 155 159 159 159 161 160
262 271 282 271 271 284 291 294 298 300 295 290 285 282 277 272 263 253 240 221 203 195 187 180 172 167 159 157 156 153 150 148 148 147 145 143 140 142 152 156 165 164 165 163
257 268 275 283 289 291 291 290 291 294 294 291 282 279 275 269 258 245 230 214 202 194 181 172 166 160 160 160 158 152 149 150 150 148 145 142 137 118 87 111 118 124 134 147
263 273 276 281 286 286 285 285 286 285 286 287 284 276 270 264 253 235 218 206 199 187 174 165 160 158 160 160 159 157 153 151 149 150 149 147 147 144 135 110 105 115 126 132
267 273 275 275 278 284 285 287 287 284 282 280 278 275 263 254 241 225 213 202 187 172 165 160 157 157 158 158 155 152 149 148 148 148 148 149 150 149 147 147 145 132 125 132
266 265 268 276 280 280 280 280 281 281 281 281 276 259 243 233 227 220 201 177 164 159 157 156 153 153 153 153 149 148 146 147 144 141 141 142 141 141 142 144 143 141 139 140
272 270 268 269 270 272 273 270 271 275 277 276 271 258 242 226 212 191 174 167 163 162 159 155 153 150 150 147 142 140 140 140 139 139 139 140 142 143 145 147 148 153 159 156
270 269 267 268 269 270 268 266 267 269 269 267 261 247 211 177 169 169 165 165 159 152 152 150 146 144 145 145 141 137 136 138 136 134 139 143 145 147 148 150 154 157 159 163
264 265 265 265 267 268 268 267 265 262 261 257 234 213 196 182 176 166 155 143 132 128 134 137 138 138 140 141 137 135 137 140 141 138 138 141 142 144 147 151 156 157 156 161
269 266 265 263 261 260 261 264 263 258 249 222 208 205 196 183 164 154 149 148 145 141 139 135 135 134 135 137 133 132 134 134 132 132 134 139 139 142 148 154 158 160 161 167
278 274 269 264 259 253 251 254 253 245 224 202 190 181 172 163 153 148 146 142 140 136 139 139 135 132 132 133 130 129 132 134 134 135 138 143 145 147 152 156 160 163 169 177
291 282 274 265 260 255 247 240 226 217 195 180 176 170 158 148 145 144 141 130 116 124 133 133 130 130 131 132 125 126 129 132 135 139 142 144 145 148 152 157 160 166 173 179
299 289 277 264 255 253 238 210 194 181 165 158 151 144 140 139 138 127 110 118 130 132 129 127 126 130 132 128 122 124 126 129 131 134 138 143 147 151 154 159 164 169 177 185
303 290 277 262 237 186 129 141 147 147 147 147 147 148 145 140 139 133 122 122 130 127 121 122 129 130 126 117 118 120 123 126 128 132 136 140 145 150 155 160 165 171 180 189
317 320 339 44 104 107 105 101 102 104 108 111 115 123 131 128 110 93 109 125 124 118 112 119 123 121 114 107 111 114 117 120 123 126 129 132 136 143 151 158 164 173 184 196
338 5 45 78 95 101 104 102 97 95 94 95 95 92 92 98 109 113 116 120 120 113 111 115 113 108 101 102 105 108 111 117 121 124 128 133 139 144 150 158 168 178 190 202
5 28 46 57 72 90 101 103 101 102 103 102 95 89 88 94 102 105 106 108 108 106 104 104 104 101 99 101 102 104 106 113 114 115 123 128 135 142 150 162 178 192 202 214
25 42 58 63 64 71 82 89 97 101 103 107 105 99 97 99 100 102 103 103 101 97 95 94 94 95 97 98 99 100 101 104 108 113 120 125 134 146 160 179 196 206 215 223